MOLNIYA 3-13

Satellite information

Favourite Embed

Satellite Type and Status

PAYLOADIN ORBIT

Key statistics

Satellite MOLNIYA 3-13 at a glance.

Uptime

16585

Days in orbit

Revolutions

≈ 2.0

Per day

Orbit

HEO

HEO

Inclination

63.8

Latest

Satellite identification and parameters

Extended collection of information and parameters for MOLNIYA 3-13.

Object identification

Identified? True

Debris? False

Object name: MOLNIYA 3-13

International designator: 1980-063A

Object number (NORAD): 11896

Object ID (CCSDS): 11896

Country: COMMONWEALTH OF INDEPENDENT STATES (CIS)

Current information (Y/N): Y

RCS size: LARGE

Orbital parameters

Period: 717.759 minutes

Inclination: 63.7875 deg

SMA: 26554.99 km

Apoapsis: 39478.292 km

Periapsis: 875.417 km

RAAN: 315.7614 deg

Eccentricy: 0.72684786

Argument of periapsis: 277.7432 deg

Mean anomaly: 12.4693 deg

Mean motion: 2.00624309 rev/day

Mean motion (dot): 0.0000013 rev/day2

B* drag term: -0.00043827741 1/REarth

Two-line elements (TLE)

Creation date: Dec. 14, 2025, 3:07 a.m.

Reference frame: TEME

Reference center: EARTH

Epoch: Dec. 12, 2025, 11:33 p.m. UTC

TLE line 0: 0 MOLNIYA 3-13

TLE line 1: 1 11896U 80063A 25346.98160932 .00000130 00000-0 -43828-3 0 9993

TLE line 2: 2 11896 63.7875 315.7614 7268479 277.7432 12.4693 2.00624309332666

Live tracking on map

Real-time ground track for satellite MOLNIYA 3-13.

In-orbit conjunctions

A list of the most updated potential collisions computed for object MOLNIYA 3-13.

Target Orbit TCA Probability of collision Miss distance Type
MOLNIYA 1-63 HEO 2024-11-02 00:34:16 TBA 1187.0 (m) PAYLOAD

Associated space launch

Molniya communication satellites operating from a highly elliptical orbit

MOLNIYA 3-13 was lifted into orbit during the mission ‘Molniya-M | Molniya-3 27L’, on board a Molniya-M space rocket.

The launch took place on July 18, 1980, 10:37 a.m. from 43/3 (43L).

For more information about the launch, click the button.

Launch to space Molniya-M | Molniya-3 27L
Molniya-M | Molniya-3 27L

Agency: N/A

Status: Launch Successful

Launch date: July 18, 1980, 10:37 a.m. UTC

Rocket: Molniya-M

Launch pad: 43/3 (43L)

Location: Plesetsk Cosmodrome, Russian Federation

...

Latest news about this satellite

There are no fresh news available about this satellite. Check back as we update our databases every day.


Newsletter sign-up

Weekly statistics, charts and insights to help you stay on top of the space industry.